Weather History for Spokane Fairchild, WA

Change the Weather History Date:

Friday, February 1, 2013

  Actual Average Record
Temperature  
Mean Temperature 27 °F -  
Max Temperature 33 °F 35 °F 46 °F (2003)
Min Temperature 21 °F 24 °F 6 °F (2014)
Degree Days  
Heating Degree Days 38    
Moisture  
Dew Point 29 °F    
Average Humidity 100    
Maximum Humidity 100    
Minimum Humidity 93    
Precipitation  
Precipitation 0.00 in - - ()
Snow  
Snow 0.00 in - - ()
Snow Depth 1.00 in    
Sea Level Pressure  
Sea Level Pressure 30.36 in    
Wind  
Wind Speed 5 mph (ESE)    
Max Wind Speed 12 mph    
Max Gust Speed -    
Visibility 2 miles    
Events Fog , Rain    
Averages and records for this station are not official NWS values.
T = Trace of Precipitation, MM = Missing Value Source: NWS Daily Summary

Daily Weather History Graph

Daily Weather History Graph

Search for Another Location

Airport:

Trip Planner

Search our weather history database for the weather conditions in past years. The results will help you decide how hot, cold, wet, or windy it might be!

Date:

Astronomy

Feb. 01, 2013 Rise Set
Actual Time 7:16 AM PST 4:52 PM PST
Civil Twilight 6:43 AM PST 5:25 PM PST
Nautical Twilight 6:06 AM PST 6:02 PM PST
Astronomical Twilight 5:30 AM PST 6:38 PM PST
Moon 11:36 PM PST (2/1) 9:23 AM PST (2/1)
Length of Visible Light 10h 41m
Length of Day
9h 35m
Waning Gibbous, 69% of the Moon is Illuminated
Feb 1
Waning Gibbous
Feb 3
Last Quarter
Feb 9
New
Feb 17
First Quarter
Feb 25
Full

Hourly Weather History & Observations

Time (PST) Temp. Windchill Dew Point Humidity Pressure Visibility Wind Dir Wind Speed Gust Speed Precip Events Conditions
12:43 AM 32.0 °F 23.6 °F 32.0 °F 100% 30.17 in 10.0 mi WSW 10.4 mph - N/A   Partly Cloudy
12:58 AM 32.0 °F 23.6 °F 32.0 °F 100% 30.24 in 10.0 mi SW 10.4 mph - N/A   Mostly Cloudy
1:03 AM 32.0 °F 23.0 °F 32.0 °F 100% 30.17 in 10.0 mi SW 11.5 mph - N/A   Mostly Cloudy
1:55 AM 30.2 °F 26.7 °F 30.2 °F 100% 30.25 in 10.0 mi South 3.5 mph - N/A   Scattered Clouds
2:55 AM 30.2 °F - 28.4 °F 93% 30.27 in 2.0 mi Calm Calm - N/A   Clear
3:23 AM 28.4 °F - 28.4 °F 100% 30.27 in 0.5 mi Calm Calm - N/A Fog Light Freezing Fog
3:49 AM 26.6 °F - 26.6 °F 100% 30.28 in 0.2 mi North 2.3 mph - N/A Fog Light Freezing Fog
3:55 AM 26.6 °F - 26.6 °F 100% 30.28 in 0.2 mi NNW 2.3 mph - N/A Fog Light Freezing Fog
4:55 AM 28.4 °F 23.3 °F 28.4 °F 100% 30.30 in 0.2 mi SW 4.6 mph - N/A Fog Light Freezing Fog
5:55 AM 28.4 °F 22.2 °F 28.4 °F 100% 30.30 in 0.2 mi WSW 5.8 mph - N/A Fog Light Freezing Fog
6:55 AM 28.4 °F 24.6 °F 28.4 °F 100% 30.33 in 0.2 mi North 3.5 mph - N/A Fog Light Freezing Fog
7:40 AM 28.4 °F 24.6 °F 28.4 °F 100% 30.27 in 0.2 mi SE 3.5 mph - N/A   Unknown
7:45 AM 28.4 °F 23.3 °F 28.4 °F 100% 30.27 in 0.2 mi SSE 4.6 mph - N/A   Unknown
7:50 AM 28.4 °F 22.2 °F 28.4 °F 100% 30.27 in 0.2 mi South 5.8 mph - N/A   Unknown
7:58 AM 28.4 °F 24.6 °F 28.4 °F 100% 30.33 in 0.2 mi South 3.5 mph - N/A   Unknown
8:13 AM 28.4 °F - 28.4 °F 100% 30.28 in 0.2 mi East 1.2 mph - N/A Fog Light Freezing Fog
8:23 AM 30.2 °F - 30.2 °F 100% 30.28 in 0.1 mi SE 2.3 mph - N/A Fog Light Freezing Fog
8:28 AM 30.2 °F 25.4 °F 30.2 °F 100% 30.28 in 0.2 mi Variable 4.6 mph - N/A Fog Light Freezing Fog
8:58 AM 30.2 °F 25.4 °F 30.2 °F 100% 30.37 in 0.2 mi South 4.6 mph - N/A   Unknown
9:18 AM 30.2 °F - 30.2 °F 100% 30.30 in 0.2 mi SSE 2.3 mph - N/A   Unknown
9:23 AM 30.2 °F - 30.2 °F 100% 30.30 in 0.2 mi SSE 2.3 mph - N/A Fog Light Freezing Fog
9:38 AM - - - N/A% 30.30 in 0.2 mi SSE 3.5 mph - N/A Rain Light Freezing Rain
9:58 AM 32.0 °F 25.6 °F 32.0 °F 100% 30.38 in 0.2 mi SSE 6.9 mph - N/A Fog Light Freezing Fog
10:03 AM 32.0 °F 24.8 °F 32.0 °F 100% 30.30 in 0.2 mi South 8.1 mph - N/A Fog Light Freezing Fog
10:08 AM 32.0 °F 24.8 °F 32.0 °F 100% 30.31 in 0.2 mi South 8.1 mph - N/A Fog Light Freezing Fog
10:23 AM 32.0 °F 24.8 °F 32.0 °F 100% 30.31 in 0.2 mi South 8.1 mph - N/A Fog Light Freezing Fog
10:38 AM 32.0 °F 25.6 °F 32.0 °F 100% 30.32 in 0.2 mi South 6.9 mph - N/A Fog Light Freezing Fog
10:58 AM 32.0 °F 24.8 °F 32.0 °F 100% 30.40 in 0.2 mi South 8.1 mph - N/A Fog Light Freezing Fog
11:08 AM 32.0 °F 27.5 °F 32.0 °F 100% 30.32 in 0.2 mi SSE 4.6 mph - N/A Fog Light Freezing Fog
11:13 AM 32.0 °F 28.7 °F 32.0 °F 100% 30.32 in 0.2 mi SE 3.5 mph - N/A Fog Light Freezing Fog
11:23 AM 32.0 °F 27.5 °F 32.0 °F 100% 30.33 in 0.2 mi SSE 4.6 mph - N/A Fog Light Freezing Fog
11:28 AM 32.0 °F 28.7 °F 32.0 °F 100% 30.33 in 0.2 mi SSE 3.5 mph - N/A Fog Light Freezing Fog
11:33 AM 32.0 °F 27.5 °F 32.0 °F 100% 30.32 in 0.5 mi SSE 4.6 mph - N/A Fog Light Freezing Fog
11:38 AM 32.0 °F 26.4 °F 32.0 °F 100% 30.33 in 0.5 mi SSE 5.8 mph - N/A Fog Light Freezing Fog
11:43 AM 32.0 °F 27.5 °F 32.0 °F 100% 30.33 in 0.5 mi SSE 4.6 mph - N/A Fog Light Freezing Fog
11:48 AM 32.0 °F 24.8 °F 32.0 °F 100% 30.33 in 0.5 mi SSE 8.1 mph - N/A Fog Light Freezing Fog
11:58 AM 32.0 °F - 32.0 °F 100% 30.40 in 0.5 mi SSW 2.3 mph - N/A Fog Light Freezing Fog
12:03 PM 32.0 °F 27.5 °F 32.0 °F 100% 30.32 in 0.5 mi SSE 4.6 mph - N/A Fog Light Freezing Fog
12:08 PM 32.0 °F - 32.0 °F 100% 30.33 in 0.8 mi South 2.3 mph - N/A   Mist
12:18 PM 32.0 °F - 32.0 °F 100% 30.33 in 1.0 mi Variable 2.3 mph - N/A   Mist
12:23 PM 32.0 °F - 32.0 °F 100% 30.33 in 2.5 mi South 2.3 mph - N/A   Overcast
12:28 PM 32.0 °F 28.7 °F 32.0 °F 100% 30.33 in 4.0 mi SSE 3.5 mph - N/A   Overcast
12:33 PM 32.0 °F - 32.0 °F 100% 30.33 in 2.5 mi South 2.3 mph - N/A   Overcast
12:43 PM 32.0 °F - 32.0 °F 100% 30.33 in 4.0 mi SSE 2.3 mph - N/A   Overcast
12:58 PM 32.0 °F 27.5 °F 32.0 °F 100% 30.41 in 7.0 mi SSE 4.6 mph - N/A   Overcast
1:08 PM 32.0 °F 27.5 °F 32.0 °F 100% 30.33 in 10.0 mi SSE 4.6 mph - N/A   Overcast
1:38 PM 32.0 °F - 32.0 °F 100% 30.33 in 10.0 mi Variable 2.3 mph - N/A   Overcast
1:58 PM 32.0 °F - 32.0 °F 100% 30.42 in 10.0 mi Calm Calm - 0.00 in   Overcast
2:08 PM 32.0 °F - 32.0 °F 100% 30.34 in 10.0 mi SW 2.3 mph - N/A   Overcast
2:43 PM 32.0 °F 27.5 °F 32.0 °F 100% 30.35 in 10.0 mi South 4.6 mph - N/A   Scattered Clouds
2:58 PM 32.0 °F 27.5 °F 30.2 °F 93% 30.42 in 10.0 mi SSW 4.6 mph - N/A   Clear
3:58 PM 33.8 °F 30.8 °F 32.0 °F 93% 30.44 in 10.0 mi West 3.5 mph - N/A   Clear
4:58 PM 32.0 °F - 30.2 °F 93% 30.45 in 10.0 mi West 2.3 mph - N/A   Clear
5:58 PM 30.2 °F - 30.2 °F 100% 30.45 in 9.0 mi ENE 2.3 mph - N/A   Clear
6:28 PM 32.0 °F - 32.0 °F 100% 30.36 in 1.0 mi WSW 1.2 mph - N/A   Clear
6:33 PM 32.0 °F - 32.0 °F 100% 30.36 in 0.5 mi Calm Calm - N/A Fog Light Freezing Fog
6:38 PM 28.4 °F - 28.4 °F 100% 30.36 in 0.8 mi ENE 2.3 mph - N/A   Clear
6:43 PM 28.4 °F - 28.4 °F 100% 30.36 in 5.0 mi NNE 2.3 mph - N/A   Clear
6:58 PM 26.6 °F - 26.6 °F 100% 30.46 in 10.0 mi NNE 2.3 mph - N/A   Clear
7:43 PM 30.2 °F 25.4 °F 30.2 °F 100% 30.37 in 0.8 mi NE 4.6 mph - N/A   Clear
7:48 PM 30.2 °F 25.4 °F 30.2 °F 100% 30.37 in 0.2 mi NNE 4.6 mph - N/A Fog Light Freezing Fog
7:58 PM 28.4 °F 23.3 °F 28.4 °F 100% 30.46 in 0.2 mi NNE 4.6 mph - 0.00 in Fog Light Freezing Fog
8:08 PM 28.4 °F 23.3 °F 28.4 °F 100% 30.38 in 0.2 mi NE 4.6 mph - N/A Fog Light Freezing Fog
8:09 PM 28.4 °F 23.3 °F 28.4 °F 100% 30.38 in 3.0 mi NE 4.6 mph - N/A   Partly Cloudy
8:14 PM 28.4 °F 24.6 °F 28.4 °F 100% 30.38 in 1.5 mi NNE 3.5 mph - N/A   Scattered Clouds
8:19 PM 26.6 °F 22.6 °F 26.6 °F 100% 30.38 in 1.0 mi NNE 3.5 mph - N/A   Mist
8:21 PM 26.6 °F 22.6 °F 26.6 °F 100% 30.38 in 0.8 mi North 3.5 mph - N/A   Unknown
8:31 PM 26.6 °F 22.6 °F 26.6 °F 100% 30.38 in 0.8 mi North 3.5 mph - N/A   Mist
8:40 PM 24.8 °F - 24.8 °F 100% 30.39 in 1.2 mi North 2.3 mph - N/A   Partly Cloudy
8:46 PM 24.8 °F - - N/A% 30.48 in 2.0 mi North 2.3 mph - N/A   Partly Cloudy
8:58 PM 24.8 °F - 24.8 °F 100% 30.48 in 2.5 mi NE 2.3 mph - N/A   Partly Cloudy
9:03 PM 24.8 °F - 24.8 °F 100% 30.39 in 2.0 mi Calm Calm - N/A   Scattered Clouds
9:08 PM 24.8 °F - 24.8 °F 100% 30.39 in 1.8 mi Calm Calm - N/A   Mostly Cloudy
9:13 PM 24.8 °F - 24.8 °F 100% 30.39 in 1.0 mi Calm Calm - N/A   Mist
9:18 PM 24.8 °F - 24.8 °F 100% 30.39 in 0.5 mi NE 1.2 mph - N/A Fog Light Freezing Fog
9:23 PM 24.8 °F - 24.8 °F 100% 30.40 in 0.5 mi Calm Calm - N/A Fog Light Freezing Fog
9:25 PM 24.8 °F - 24.8 °F 100% 30.39 in 0.5 mi North 1.2 mph - N/A   Unknown
9:30 PM 24.8 °F - 24.8 °F 100% 30.40 in 0.5 mi North 1.2 mph - N/A   Mist
9:32 PM 24.8 °F - 24.8 °F 100% 30.40 in 0.8 mi NNW 2.3 mph - N/A   Mist
9:35 PM 24.8 °F - 24.8 °F 100% 30.40 in 1.0 mi NNW 2.3 mph - N/A   Mist
9:58 PM 23.0 °F - 23.0 °F 100% 30.51 in 1.0 mi NNE 2.3 mph - N/A   Mist
10:16 PM 24.8 °F - 24.8 °F 100% 30.41 in 0.8 mi NE 2.3 mph - N/A   Mist
10:24 PM 24.8 °F - 24.8 °F 100% 30.50 in 0.5 mi NE 2.3 mph - N/A Fog Light Freezing Fog
10:36 PM 24.8 °F - 24.8 °F 100% 30.50 in 0.8 mi ENE 2.3 mph - N/A   Mist
10:46 PM 23.0 °F - 23.0 °F 100% 30.51 in 1.0 mi NE 1.2 mph - N/A   Mist
10:58 PM 23.0 °F 18.4 °F 23.0 °F 100% 30.51 in 0.8 mi ENE 3.5 mph - N/A   Mist
11:33 PM 23.0 °F - 23.0 °F 100% 30.50 in 1.0 mi NNE 2.3 mph - N/A   Scattered Clouds
11:47 PM 23.0 °F - 23.0 °F 100% 30.41 in 1.8 mi NNE 1.2 mph - N/A Rain Light Freezing Rain
11:48 PM 23.0 °F - 23.0 °F 100% 30.41 in 2.0 mi NNE 1.2 mph - N/A   Mostly Cloudy
11:53 PM 21.2 °F - 21.2 °F 100% 30.41 in 3.0 mi Calm Calm - N/A   Mostly Cloudy
11:58 PM 22.1 °F - 22.1 °F 100% 30.51 in 5.0 mi North 1.2 mph - 0.00 in   Scattered Clouds